weather.gov     
National Weather Service

Terminal Aerodrome Forecast
NWS Homepage
This page is being discontinued on March 12, 2014.
The same data is available at this site. Please update your bookmarks.
Thank you, and we apologize for the inconvenience.
Please send an email to SR-SRH.Webmaster@noaa.gov with any concerns.


Current Version
Previous Version:    01  02  03  04  05  06  07  08  09  10  11  12  13  14  15  16  17  18  19  20  21  22  23  24  25  26  27  28  29  30  
   31  32  33  34  35  36  37  38  39  40  41  42  43  44  45  46  47  48  49  50  51  52  53  54  55  56  57  58  59  60  
[Printable]
165
FTUS43 KGID 201559 AAA
TAFGRI
TAF AMD
KGRI 201559Z 2016/2112 20006KT 1/4SM FG OVC002
     FM201700 18006KT 3SM BR SCT150
      TEMPO 2017/2018 1/4SM FG BKN002
     FM201900 18006KT P6SM SCT150
     FM210000 20006KT P6SM SCT008 BKN150=




165
FTUS43 KGID 201559 AAA
TAFGRI
TAF AMD
KGRI 201559Z 2016/2112 20006KT 1/4SM FG OVC002
     FM201700 18006KT 3SM BR SCT150
      TEMPO 2017/2018 1/4SM FG BKN002
     FM201900 18006KT P6SM SCT150
     FM210000 20006KT P6SM SCT008 BKN150=


U.S. Dept. of Commerce
NOAA National Weather Service
1325 East West Highway
Silver Spring, MD 20910
E-mail: w-nws.webmaster@noaa.gov
Page last modified: May 16, 2007
NATIONAL WEATHER SERVICE: for Safety, for Work, for Fun - FOR LIFE